Location: Unspecified
(0.0000°N, 0.0000°E)
Time: 09:46:44
(UTC+00:00)

SRMSAT - Pass Details

Date: 02 April 2019
Orbit: 849 x 865 km, 20.0° (Epoch: 26 April)

Event Time Altitude Azimuth Distance (km) Brightness Sun altitude
Rises 19:14:02 0° 240° (WSW) 3,422 ? -17.5°
Reaches altitude 10° 19:16:40 10° 235° (SW) 2,483 ? -18.2°
Maximum altitude 19:22:29 53° 159° (SSE) 1,036 ? -19.6°
Enters shadow 19:24:27 37° 106° (ESE) 1,288 ? -20.1°
